Flag for Estonia Weather past 2 weeks in Tartu, Estonia

Now
55 °F

Scattered clouds.


Feels Like: 54 °F
Forecast: 46 / 63 °F
Wind: 6 mph from West

Location: Tartu/Ulenurme

Current Time: Aug 29, 2014 at 8:11:47 PM

Latest Report: Aug 29, 2014 at 6:50 PM


Visibility: N/A

Pressure: 29.83 "Hg

Humidity: 82%

Dew point: 50 °F

Location of TartuLocation

Historic Weather in Tartu — Graph

°F

Tartu temperature yesterday

Maximum temperature yesterday: 61 °F (at 12:50 PM)
Minimum temperature yesterday: 54 °F (at 12:50 AM)
Average temperature yesterday: 57 °F

Past Weeks' High & Low Weather Summary

 TemperatureHumidityPressure
High70 °F (Aug 15, 2:50 PM)100% (Aug 16, 6:50 AM)29.89 "Hg (Aug 16, 6:50 AM)
Low46 °F (Aug 29, 5:50 AM)46% (Aug 18, 1:50 PM)29.39 "Hg (Aug 27, 7:50 AM)
Average58 °F81%29.67 "Hg
* Reported Aug 14 6:50 PM — Aug 29 6:50 PM, Tartu, Weather by CustomWeather, © 2014

Note: Actual official high and low records may vary slightly from our data, if they occured in-between our weather recording intervals... More about our weather records

Advertising

Tartu weather history for previous 24 hours

 ConditionsComfort  
Time TempWeatherWind HumidityBarometerVisibility
6:50 PM
Aug 29
55 °FScattered clouds.6 mph82%29.83 "HgN/A
5:50 PM55 °FThundershowers. Broken clouds.9 mph82%29.83 "Hg5 mi
4:50 PM59 °FThundershowers. Scattered clouds.7 mph77%29.83 "HgN/A
3:50 PM57 °FBroken clouds.6 mph77%29.83 "HgN/A
2:50 PM57 °FThundershowers. Broken clouds.13 mph67%29.80 "HgN/A
1:50 PM61 °FScattered showers. Broken clouds.9 mph77%29.80 "HgN/A
12:50 PM61 °FPartly sunny.10 mph77%29.80 "HgN/A
11:50 AM59 °FBroken clouds.14 mph82%29.80 "HgN/A
10:50 AM57 °FPartly sunny.10 mph94%29.80 "HgN/A
9:50 AM55 °FPartly sunny.10 mph94%29.80 "HgN/A
8:50 AM54 °FFog.9 mph100%29.80 "Hg1 mi
7:50 AM50 °FFog.10 mph100%29.80 "Hg0 mi
6:50 AM48 °FFog.8 mph94%29.80 "Hg0 mi
5:50 AM46 °FFog.8 mph100%29.77 "Hg1 mi
4:50 AM48 °FFog.8 mph94%29.77 "Hg0 mi
3:50 AM50 °FCool.6 mph94%29.77 "HgN/A
2:50 AM50 °FCool.7 mph94%29.77 "HgN/A
1:50 AM52 °FCool.7 mph94%29.74 "HgN/A
12:50 AM52 °FCool.7 mph94%29.74 "HgN/A
11:50 PM
Aug 28
54 °FCool.6 mph94%29.74 "HgN/A
10:50 PM55 °FPassing clouds.6 mph94%29.74 "HgN/A
9:50 PM57 °FPassing clouds.6 mph88%29.71 "HgN/A
8:50 PM57 °FScattered clouds.6 mph88%29.71 "HgN/A
Weather by CustomWeather, © 2014

See weather overviewHow to use our weather pages